This demonstration page uses our WeatherBlox Daily Observations layout. Learn more.

Left ArrowRight Arrow

31.31129, -92.44514

Hourly Observations for May 8, 2020

Temp ( °F °C ) Dew Point ( °F °C ) Humidity (%) Winds ( mph kmh ) Pressure ( in mb ) Visibility ( mi km ) Precip ( " mm )
12:53 am 00:53 Mostly Cloudy 67 19.4 58 14.4 73 73 S 7 11 30.01 1016 10 16 0.00 0.00
1:53 am 01:53 Cloudy 66 18.9 59 15 78 78 S 7 11 29.98 1015 10 16 0.00 0.00
2:53 am 02:53 Cloudy 65 18.3 59 15 81 81 SSE 9 15 29.94 1014 10 16 0.00 0.00
3:53 am 03:53 Mostly Clear 65 18.3 60 15.6 84 84 SSE 14 22 29.88 1012 10 16 0.00 0.00
4:53 am 04:53 Clear 67 19.4 61 16.1 81 81 S 15 24 29.85 1011 10 16 0.00 0.00
5:53 am 05:53 Cloudy 67 19.4 62 16.7 84 84 S 12 19 29.81 1010 10 16 0.00 0.00
6:53 am 06:53 Cloudy 71 21.7 63 17.2 76 76 SSW 8 13 29.86 1011 10 16 0.00 0.00
7:53 am 07:53 Cloudy 70 21.1 64 17.8 82 82 S 8 13 29.88 1012 10 16 0.00 0.00
8:53 am 08:53 Cloudy with Light Rain 69 20.6 66 18.9 90 90 ESE 6 9 29.93 1014 4 6 0.02 0.51
9:05 am 09:05 Cloudy with Light Rain 70 21.1 67 19.4 90 90 ESE 8 13 29.92 1013 4 6 0.03 0.76
9:28 am 09:28 Cloudy with Thunderstorms 69 20.6 67 19.4 93 93 ENE 3 6 29.93 1013 5 8 0.04 1.02
9:32 am 09:32 Cloudy with Strong Thunderstorms 69 20.6 67 19.4 93 93 NNE 5 7 29.93 1013 2 3 0.09 2.29
9:40 am 09:40 Cloudy with Nearby Thunderstorms 69 20.6 67 19.4 93 93 ESE 8 13 29.93 1013 2 3 0.10 2.54
9:43 am 09:43 Cloudy with Light Rain 69 20.6 67 19.4 93 93 SE 8 13 29.92 1013 4 6 0.10 2.54
9:53 am 09:53 Cloudy with Light Rain 69 20.6 67 19.4 93 93 ESE 10 17 29.92 1013 8 13 0.10 2.54
10:20 am 10:20 Cloudy with Light Rain 68 20 66 18.9 93 93 N 17 28 29.96 1014 9 14 0.00 0.00
10:24 am 10:24 Cloudy with Rain 66 18.9 64 17.8 93 93 N 17 28 29.98 1015 1 2 0.16 4.06
10:31 am 10:31 Cloudy with Heavy Rain 64 17.8 63 17.2 96 96 N 10 17 29.96 1015 0 0 0.50 12.70
10:43 am 10:43 Cloudy with Heavy Rain 64 17.8 63 17.2 96 96 VRB 3 6 29.96 1015 1 1 0.80 20.32
10:53 am 10:53 Cloudy with Heavy Rain 64 17.8 62 16.7 93 93 Calm 29.96 1015 1 1 0.93 23.62
11:01 am 11:01 Cloudy with Heavy Rain 64 17.8 63 17.2 96 96 SE 6 9 29.93 1014 2 2 0.08 2.03
11:08 am 11:08 Cloudy with Heavy Rain 64 17.8 63 17.2 96 96 Calm 29.94 1014 2 3 0.12 3.05
11:23 am 11:23 Cloudy with Rain 64 17.8 63 17.2 96 96 SE 6 9 29.93 1014 3 5 0.19 4.83
11:33 am 11:33 Cloudy with Rain 65 18.3 63 17.2 93 93 Calm 29.93 1014 3 4 0.22 5.59
11:42 am 11:42 Cloudy with Light Rain 65 18.3 63 17.2 93 93 VRB 3 6 29.94 1014 6 10 0.22 5.59
11:49 am 11:49 Cloudy with Light Rain 64 18 63 17 94 94 NW 5 7 29.95 1014 6 10 0.22 5.59
11:53 am 11:53 Cloudy with Nearby Thunderstorms 65 18.3 63 17.2 93 93 NW 9 15 29.95 1014 3 4 0.25 6.35
11:57 am 11:57 Cloudy with Nearby Thunderstorms 65 18.3 63 17.2 93 93 NNW 9 15 29.94 1014 2 3 0.02 0.51
12:06 pm 12:06 Cloudy with Rain 65 18.3 63 17.2 93 93 NNW 3 6 29.94 1014 2 3 0.06 1.52
12:09 pm 12:09 Cloudy with Rain 65 18.3 63 17.2 93 93 Calm 29.94 1014 2 3 0.07 1.78
12:14 pm 12:14 Cloudy with Nearby Thunderstorms 65 18.3 63 17.2 93 93 Calm 29.93 1014 2 3 0.10 2.54
12:30 pm 12:30 Cloudy with Nearby Thunderstorms 65 18.3 63 17.2 93 93 WSW 15 24 29.95 1014 1 1 0.53 13.46
12:32 pm 12:32 Cloudy with Strong Thunderstorms 65 18.3 63 17.2 93 93 WSW 15 24 29.95 1014 0 0 0.57 14.48
12:36 pm 12:36 Cloudy with Strong Thunderstorms 65 18.3 63 17.2 93 93 SSW 15 24 29.92 1013 1 1 0.66 16.76
12:44 pm 12:44 Cloudy with Strong Thunderstorms 65 18.3 62 16.7 90 90 WSW 20 31 29.90 1012 1 2 0.77 19.56
12:53 pm 12:53 Cloudy with Strong Thunderstorms 65 18.3 62 16.7 90 90 W 17 28 29.88 1012 1 2 0.86 21.84
1:36 pm 13:36 Cloudy with Thunderstorms 65 18.3 63 17.2 93 93 W 7 11 29.88 1012 3 5 0.37 9.40
1:41 pm 13:41 Cloudy with Thunderstorms 65 18.3 63 17.2 93 93 NW 8 13 29.87 1011 7 11 0.37 9.40
1:53 pm 13:53 Cloudy with Thunderstorms 65 18.3 63 17.2 93 93 WNW 8 13 29.91 1013 8 13 0.38 9.65
2:00 pm 14:00 Cloudy with Strong Thunderstorms 65 18.3 63 17.2 93 93 WNW 7 11 29.89 1012 3 4 0.02 0.51
2:15 pm 14:15 Cloudy with Thunderstorms 65 18.3 63 17.2 93 93 NNW 12 19 29.89 1012 6 10 0.04 1.02
2:30 pm 14:30 Cloudy with Nearby Thunderstorms 65 18.3 63 17.2 93 93 NNW 9 15 29.90 1012 10 16 0.04 1.02
2:53 pm 14:53 Cloudy with Light Rain 65 18.3 63 17.2 93 93 N 16 26 29.91 1013 4 6 0.05 1.27
3:04 pm 15:04 Cloudy with Light Rain 65 18.3 63 17.2 93 93 N 15 24 29.89 1012 3 5 0.02 0.51
3:16 pm 15:16 Cloudy with Light Rain 64 17.8 63 17.2 96 96 NNW 12 19 29.91 1013 3 4 0.02 0.51
3:19 pm 15:19 Cloudy with Light Rain 64 17.8 62 16.7 93 93 N 14 22 29.90 1012 4 6 0.02 0.51
3:26 pm 15:26 Cloudy 64 17.8 62 16.7 93 93 N 10 17 29.92 1013 10 16 0.02 0.51
3:36 pm 15:36 Cloudy 64 17.8 62 16.7 93 93 N 7 11 29.92 1013 10 16 0.02 0.51
3:53 pm 15:53 Mostly Cloudy 65 18.3 61 16.1 87 87 N 12 19 29.93 1014 8 13 0.02 0.51
4:53 pm 16:53 Partly Cloudy 67 19.4 63 17.2 87 87 N 13 20 29.94 1014 10 16 0.00 0.00
5:36 pm 17:36 Mostly Cloudy 70 21.1 63 17.2 79 79 VRB 6 9 29.96 1014 10 16 0.00 0.00
5:53 pm 17:53 Mostly Cloudy 70 21.1 62 16.7 76 76 NNE 8 13 29.97 1015 10 16 0.00 0.00
6:53 pm 18:53 Sunny 70 21.1 61 16.1 73 73 N 10 17 29.98 1015 10 16 0.00 0.00
7:53 pm 19:53 Sunny 67 19.4 60 15.6 79 79 Calm 30.01 1016 10 16 0.00 0.00
8:53 pm 20:53 Mostly Clear 65 18.3 59 15 81 81 NNE 8 13 30.04 1017 10 16 0.00 0.00
9:53 pm 21:53 Clear 64 17.8 56 13.3 75 75 NE 9 15 30.08 1019 10 16 0.00 0.00
10:53 pm 22:53 Clear 62 16.7 54 12.2 75 75 NE 9 15 30.10 1019 10 16 0.00 0.00
11:53 pm 23:53 Clear 60 15.6 54 12.2 80 80 NE 6 9 30.12 1020 10 16 0.00 0.00

Powered by AerisWeather